Location: Oshawa
(43.9000°N, 78.8670°W)
Time: 00:44:05
(UTC-04:00)

Cosmos 1805 Rocket - Visible Passes

Search period start: 26 May 2016 00:00
Search period end: 05 June 2016 00:00
Orbit: 607 x 629 km, 82.5° (Epoch: 25 May)

Date Brightness Start Highest point End Pass type
(mag) Time Alt. Az. Time Alt. Az. Time Alt. Az.
26 May 3.7 02:31:12 55° SE 02:31:51 64° E 02:36:15 10° NNE visible
26 May 5.7 04:08:20 11° W 04:10:12 13° WNW 04:12:16 10° NW visible
27 May 6.1 01:11:09 11° E 01:11:48 11° E 01:13:04 10° ENE visible
27 May 3.5 02:48:17 57° SW 02:48:59 69° W 02:53:26 10° N visible
28 May 5.4 01:28:13 20° E 01:28:39 20° E 01:31:53 10° NE visible
28 May 4.3 03:05:21 34° WSW 03:06:13 37° WNW 03:10:22 10° N visible
29 May 4.6 01:45:16 35° E 01:45:35 35° E 01:49:39 10° NNE visible
29 May 5.1 03:22:24 20° W 03:23:32 22° WNW 03:27:00 10° NNW visible
30 May 3.6 02:02:19 64° ESE 02:02:37 66° E 02:07:03 10° NNE visible
30 May 5.8 03:39:27 11° W 03:40:58 13° WNW 03:42:57 10° NW visible
31 May 6.0 00:42:12 11° E 00:42:33 12° E 00:44:04 10° ENE visible
31 May 3.5 02:19:20 62° WSW 02:19:45 67° W 02:24:12 10° N visible
01 Jun 5.3 00:59:14 21° E 00:59:24 21° E 01:02:43 10° NE visible
01 Jun 4.4 02:36:22 34° W 02:37:00 36° WNW 02:41:08 10° N visible
02 Jun 4.5 01:16:14 37° E 01:16:21 37° E 01:20:27 10° NNE visible
02 Jun 5.2 02:53:22 20° W 02:54:20 21° WNW 02:57:44 10° NNW visible
03 Jun 3.6 01:33:14 68° ESE 01:33:23 69° E 01:37:50 10° NNE visible
03 Jun 5.9 03:10:22 11° W 03:11:46 12° WNW 03:13:38 10° NW visible
04 Jun 5.9 00:13:05 12° E 00:13:18 12° E 00:15:00 10° ENE visible
04 Jun 3.6 01:50:13 62° WSW 01:50:32 65° W 01:54:59 10° N visible
